Puyallup, WA
on Sunday, November 4, 2012

Sunday
Previous Day Next Day
Daily Summary
 ActualAverage (KSEA)Record (KSEA)
Temperature
Mean Temperature °F / °C 48°F / 9°C  
Max Temperature 66°F / 19°C 54°F / 12°C 74°F / 23°C (1949)
Min Temperature 53°F / 12°C 42°F / 6°C 30°F / -1°C (1957)
Degree Days
Heating Degree Days 6 17  
Month to date heating degree days 67  
Since 1 July heating degree days 664  
Cooling Degree Days 0 0  
Month to date cooling degree days 0  
Year to date cooling degree days 189  
Growing Degree Days10 (Base °F / °C )  
Moisture
Dew Point 56°F / 13°C   
Average Humidity 90    
Maximum Humidity 100    
Minimum Humidity 68    
Precipitation
Precipitation 0.03 in / 0.76 cm 0.20 in / 5.08 cm 1.91 in / 4.85 cm (2006)
Month to date precipitation 0.78  
Year to date precipitation 26.35  
Snow
Snow 0.00 in / 0.00 cm in / cm T in / T cm (1973)
Month to date snowfall  
Since 1 July snowfall  
Snow Depth in / cm   
Wind
Wind Speed 1 mph / 2 km/h   
Max Wind Speed 8 mph / 13 km/h   
Max Gust Speed 16 mph / 26 km/h   
Visibility 9 miles / 14 kilometers   
Events Rain   

Key: T is trace of precipitation, MM is missing value
Source: NWS Daily Summary
Time(PST)TemperatureDew PointHumidity Pressure Visibility Wind DirectionWind SpeedGust SpeedPrecipitationEvents Conditions
12:15 AM 53.6°F / 12.0°C 53.6°F / 12.0°C 100% 30.20 in / 1022.6 hPa 4.0 miles / 6.4 kilometers Calm Calm - N/A   Overcast
12:35 AM 53.6°F / 12.0°C 53.6°F / 12.0°C 100% 30.20 in / 1022.6 hPa 10.0 miles / 16.1 kilometers Calm Calm - N/A   Mostly Cloudy
12:55 AM 53.6°F / 12.0°C 53.6°F / 12.0°C 100% 30.19 in / 1022.2 hPa 6.0 miles / 9.7 kilometers Calm Calm - N/A   Overcast
1:15 AM 53.6°F / 12.0°C 53.6°F / 12.0°C 100% 30.19 in / 1022.2 hPa 10.0 miles / 16.1 kilometers Calm Calm - N/A   Overcast
1:35 AM 53.6°F / 12.0°C 53.6°F / 12.0°C 100% 30.18 in / 1021.9 hPa 10.0 miles / 16.1 kilometers Calm Calm - N/A   Overcast
1:55 AM 53.6°F / 12.0°C 53.6°F / 12.0°C 100% 30.18 in / 1021.9 hPa 10.0 miles / 16.1 kilometers Calm Calm - N/A   Mostly Cloudy
1:15 AM 53.6°F / 12.0°C 53.6°F / 12.0°C 100% 30.19 in / 1022.2 hPa 10.0 miles / 16.1 kilometers Calm Calm - N/A   Mostly Cloudy
1:35 AM 53.6°F / 12.0°C 53.6°F / 12.0°C 100% 30.20 in / 1022.6 hPa 9.0 miles / 14.5 kilometers Calm Calm - N/A   Mostly Cloudy
1:55 AM 53.6°F / 12.0°C 53.6°F / 12.0°C 100% 30.20 in / 1022.6 hPa 10.0 miles / 16.1 kilometers Calm Calm - N/A   Overcast
2:15 AM 53.6°F / 12.0°C 53.6°F / 12.0°C 100% 30.20 in / 1022.6 hPa 10.0 miles / 16.1 kilometers Calm Calm - N/A   Overcast
2:35 AM 53.6°F / 12.0°C 53.6°F / 12.0°C 100% 30.19 in / 1022.2 hPa 5.0 miles / 8.0 kilometers Calm Calm - N/A   Mostly Cloudy
2:55 AM 53.6°F / 12.0°C 53.6°F / 12.0°C 100% 30.19 in / 1022.2 hPa 10.0 miles / 16.1 kilometers Calm Calm - N/A   Overcast
3:15 AM 53.6°F / 12.0°C 53.6°F / 12.0°C 100% 30.20 in / 1022.6 hPa 10.0 miles / 16.1 kilometers Calm Calm - N/A   Overcast
3:35 AM 53.6°F / 12.0°C 53.6°F / 12.0°C 100% 30.20 in / 1022.6 hPa 10.0 miles / 16.1 kilometers Calm Calm - N/A   Overcast
3:55 AM 53.6°F / 12.0°C 53.6°F / 12.0°C 100% 30.20 in / 1022.6 hPa 5.0 miles / 8.0 kilometers Calm Calm - N/A   Overcast
4:15 AM 53.6°F / 12.0°C 53.6°F / 12.0°C 100% 30.20 in / 1022.6 hPa 2.5 miles / 4.0 kilometers Calm Calm - N/A Rain Light Rain
4:35 AM 53.6°F / 12.0°C 53.6°F / 12.0°C 100% 30.20 in / 1022.6 hPa 3.0 miles / 4.8 kilometers Calm Calm - N/A   Overcast
4:55 AM 53.6°F / 12.0°C 53.6°F / 12.0°C 100% 30.20 in / 1022.6 hPa 6.0 miles / 9.7 kilometers Calm Calm - N/A   Overcast
5:15 AM 53.6°F / 12.0°C 53.6°F / 12.0°C 100% 30.21 in / 1022.9 hPa 9.0 miles / 14.5 kilometers Calm Calm - N/A   Overcast
5:35 AM 53.6°F / 12.0°C 53.6°F / 12.0°C 100% 30.21 in / 1022.9 hPa 10.0 miles / 16.1 kilometers Calm Calm - N/A   Overcast
5:55 AM 53.6°F / 12.0°C 53.6°F / 12.0°C 100% 30.21 in / 1022.9 hPa 10.0 miles / 16.1 kilometers Calm Calm - N/A   Overcast
6:15 AM 53.6°F / 12.0°C 53.6°F / 12.0°C 100% 30.21 in / 1022.9 hPa 10.0 miles / 16.1 kilometers Calm Calm - N/A   Overcast
6:35 AM 53.6°F / 12.0°C 53.6°F / 12.0°C 100% 30.20 in / 1022.6 hPa 10.0 miles / 16.1 kilometers Calm Calm - N/A   Overcast
6:55 AM 53.6°F / 12.0°C 53.6°F / 12.0°C 100% 30.20 in / 1022.6 hPa 10.0 miles / 16.1 kilometers Calm Calm - N/A   Overcast
7:15 AM 53.6°F / 12.0°C 53.6°F / 12.0°C 100% 30.20 in / 1022.6 hPa 10.0 miles / 16.1 kilometers Calm Calm - N/A   Mostly Cloudy
7:35 AM 53.6°F / 12.0°C 53.6°F / 12.0°C 100% 30.20 in / 1022.6 hPa 10.0 miles / 16.1 kilometers Calm Calm - N/A   Mostly Cloudy
7:55 AM 55.4°F / 13.0°C 55.4°F / 13.0°C 100% 30.20 in / 1022.6 hPa 10.0 miles / 16.1 kilometers Calm Calm - N/A   Mostly Cloudy
8:15 AM 55.4°F / 13.0°C 55.4°F / 13.0°C 100% 30.21 in / 1022.9 hPa 10.0 miles / 16.1 kilometers Calm Calm - N/A   Mostly Cloudy
8:35 AM 55.4°F / 13.0°C 55.4°F / 13.0°C 100% 30.22 in / 1023.2 hPa 10.0 miles / 16.1 kilometers Calm Calm - N/A   Overcast
8:55 AM 55.4°F / 13.0°C 55.4°F / 13.0°C 100% 30.22 in / 1023.2 hPa 10.0 miles / 16.1 kilometers Calm Calm - N/A   Mostly Cloudy
9:15 AM 57.2°F / 14.0°C 57.2°F / 14.0°C 100% 30.22 in / 1023.2 hPa 10.0 miles / 16.1 kilometers Calm Calm - N/A   Mostly Cloudy
9:35 AM 57.2°F / 14.0°C 57.2°F / 14.0°C 100% 30.23 in / 1023.6 hPa 10.0 miles / 16.1 kilometers Calm Calm - N/A   Mostly Cloudy
9:55 AM 59.0°F / 15.0°C 57.2°F / 14.0°C 94% 30.23 in / 1023.6 hPa 10.0 miles / 16.1 kilometers Calm Calm - N/A   Mostly Cloudy
10:15 AM 59.0°F / 15.0°C 59.0°F / 15.0°C 100% 30.23 in / 1023.6 hPa 10.0 miles / 16.1 kilometers Calm Calm - N/A   Overcast
10:35 AM 60.8°F / 16.0°C 59.0°F / 15.0°C 94% 30.24 in / 1023.9 hPa 10.0 miles / 16.1 kilometers Calm Calm - N/A   Overcast
10:55 AM 62.6°F / 17.0°C 59.0°F / 15.0°C 88% 30.24 in / 1023.9 hPa 10.0 miles / 16.1 kilometers Calm Calm - N/A   Mostly Cloudy
11:15 AM 62.6°F / 17.0°C 59.0°F / 15.0°C 88% 30.25 in / 1024.3 hPa 10.0 miles / 16.1 kilometers Calm Calm - N/A   Overcast
11:35 AM 64.4°F / 18.0°C 59.0°F / 15.0°C 83% 30.24 in / 1023.9 hPa 10.0 miles / 16.1 kilometers Calm Calm - N/A   Mostly Cloudy
11:55 AM 64.4°F / 18.0°C 59.0°F / 15.0°C 83% 30.24 in / 1023.9 hPa 10.0 miles / 16.1 kilometers Calm Calm - N/A   Overcast
12:15 PM 64.4°F / 18.0°C 60.8°F / 16.0°C 88% 30.24 in / 1023.9 hPa 10.0 miles / 16.1 kilometers Calm Calm - N/A   Overcast
12:35 PM 64.4°F / 18.0°C 60.8°F / 16.0°C 88% 30.25 in / 1024.3 hPa 10.0 miles / 16.1 kilometers Calm Calm - N/A   Overcast
12:55 PM 64.4°F / 18.0°C 60.8°F / 16.0°C 88% 30.25 in / 1024.3 hPa 10.0 miles / 16.1 kilometers Calm Calm - N/A   Overcast
1:15 PM 64.4°F / 18.0°C 60.8°F / 16.0°C 88% 30.25 in / 1024.3 hPa 10.0 miles / 16.1 kilometers Calm Calm - N/A   Overcast
1:35 PM 64.4°F / 18.0°C 60.8°F / 16.0°C 88% 30.24 in / 1023.9 hPa 10.0 miles / 16.1 kilometers Calm Calm - N/A   Overcast
1:55 PM 64.4°F / 18.0°C 60.8°F / 16.0°C 88% 30.25 in / 1024.3 hPa 10.0 miles / 16.1 kilometers Calm Calm - N/A   Overcast
2:15 PM 66.2°F / 19.0°C 59.0°F / 15.0°C 78% 30.26 in / 1024.6 hPa 10.0 miles / 16.1 kilometers WSW 6.9 mph / 11.1 km/h - N/A   Overcast
2:35 PM 66.2°F / 19.0°C 59.0°F / 15.0°C 78% 30.26 in / 1024.6 hPa 10.0 miles / 16.1 kilometers SW 4.6 mph / 7.4 km/h - N/A   Overcast
2:55 PM 66.2°F / 19.0°C 59.0°F / 15.0°C 78% 30.26 in / 1024.6 hPa 10.0 miles / 16.1 kilometers West 5.8 mph / 9.3 km/h - N/A   Overcast
3:15 PM 66.2°F / 19.0°C 57.2°F / 14.0°C 73% 30.26 in / 1024.6 hPa 10.0 miles / 16.1 kilometers WSW 5.8 mph / 9.3 km/h - N/A   Overcast
3:35 PM 66.2°F / 19.0°C 57.2°F / 14.0°C 73% 30.25 in / 1024.3 hPa 10.0 miles / 16.1 kilometers SW 6.9 mph / 11.1 km/h - N/A   Mostly Cloudy
3:55 PM 66.2°F / 19.0°C 57.2°F / 14.0°C 73% 30.24 in / 1023.9 hPa 10.0 miles / 16.1 kilometers SW 5.8 mph / 9.3 km/h - N/A   Clear
4:15 PM 66.2°F / 19.0°C 57.2°F / 14.0°C 73% 30.25 in / 1024.3 hPa 10.0 miles / 16.1 kilometers SSW 4.6 mph / 7.4 km/h - N/A   Clear
4:35 PM 64.4°F / 18.0°C 57.2°F / 14.0°C 77% 30.23 in / 1023.6 hPa 10.0 miles / 16.1 kilometers SSW 4.6 mph / 7.4 km/h - N/A   Clear
4:55 PM 64.4°F / 18.0°C 55.4°F / 13.0°C 73% 30.24 in / 1023.9 hPa 10.0 miles / 16.1 kilometers Calm Calm - N/A   Partly Cloudy
5:15 PM 64.4°F / 18.0°C 55.4°F / 13.0°C 73% 30.24 in / 1023.9 hPa 10.0 miles / 16.1 kilometers Calm Calm - N/A   Scattered Clouds
5:35 PM 66.2°F / 19.0°C 55.4°F / 13.0°C 68% 30.25 in / 1024.3 hPa 10.0 miles / 16.1 kilometers SSW 6.9 mph / 11.1 km/h - N/A   Mostly Cloudy
5:55 PM 64.4°F / 18.0°C 57.2°F / 14.0°C 77% 30.26 in / 1024.6 hPa 9.0 miles / 14.5 kilometers Calm Calm - N/A Rain Light Rain
6:15 PM 62.6°F / 17.0°C 57.2°F / 14.0°C 82% 30.26 in / 1024.6 hPa 9.0 miles / 14.5 kilometers Calm Calm - N/A   Overcast
6:35 PM 62.6°F / 17.0°C 57.2°F / 14.0°C 82% 30.26 in / 1024.6 hPa 10.0 miles / 16.1 kilometers Calm Calm - N/A   Overcast
6:55 PM 62.6°F / 17.0°C 57.2°F / 14.0°C 82% 30.26 in / 1024.6 hPa 10.0 miles / 16.1 kilometers Calm Calm - N/A   Overcast
7:15 PM 62.6°F / 17.0°C 57.2°F / 14.0°C 82% 30.26 in / 1024.6 hPa 10.0 miles / 16.1 kilometers Calm Calm - N/A   Overcast
7:35 PM 64.4°F / 18.0°C 55.4°F / 13.0°C 73% 30.25 in / 1024.3 hPa 10.0 miles / 16.1 kilometers South 4.6 mph / 7.4 km/h - N/A   Overcast
7:55 PM 64.4°F / 18.0°C 55.4°F / 13.0°C 73% 30.25 in / 1024.3 hPa 10.0 miles / 16.1 kilometers SSW 4.6 mph / 7.4 km/h - N/A   Overcast
8:15 PM 64.4°F / 18.0°C 55.4°F / 13.0°C 73% 30.24 in / 1023.9 hPa 10.0 miles / 16.1 kilometers SSW 6.9 mph / 11.1 km/h - N/A   Mostly Cloudy
8:35 PM 64.4°F / 18.0°C 55.4°F / 13.0°C 73% 30.24 in / 1023.9 hPa 10.0 miles / 16.1 kilometers SSW 5.8 mph / 9.3 km/h 16.1 mph / 25.9 km/h N/A   Overcast
8:55 PM 64.4°F / 18.0°C 55.4°F / 13.0°C 73% 30.25 in / 1024.3 hPa 10.0 miles / 16.1 kilometers SSW 8.1 mph / 13.0 km/h - N/A   Overcast
9:15 PM 64.4°F / 18.0°C 55.4°F / 13.0°C 73% 30.26 in / 1024.6 hPa 10.0 miles / 16.1 kilometers WNW 4.6 mph / 7.4 km/h - N/A   Overcast
9:35 PM 60.8°F / 16.0°C 59.0°F / 15.0°C 94% 30.27 in / 1024.9 hPa 2.0 miles / 3.2 kilometers Calm Calm - 0.02 in / 0.5 cm Rain Rain
9:55 PM 59.0°F / 15.0°C 59.0°F / 15.0°C 100% 30.27 in / 1024.9 hPa 2.5 miles / 4.0 kilometers Calm Calm - 0.02 in / 0.5 cm Rain Light Rain
10:15 PM 59.0°F / 15.0°C 59.0°F / 15.0°C 100% 30.28 in / 1025.3 hPa 4.0 miles / 6.4 kilometers Calm Calm - 0.01 in / 0.3 cm Rain Light Rain
10:35 PM 59.0°F / 15.0°C 59.0°F / 15.0°C 100% 30.27 in / 1024.9 hPa 5.0 miles / 8.0 kilometers Calm Calm - 0.01 in / 0.3 cm Rain Light Rain
10:55 PM 59.0°F / 15.0°C 59.0°F / 15.0°C 100% 30.28 in / 1025.3 hPa 7.0 miles / 11.3 kilometers Calm Calm - 0.01 in / 0.3 cm   Mostly Cloudy
Moon Phase
Nov. 04 Nov. 06 Nov. 13 Nov. 20 Nov. 28
Sunrise:06:57 AM (PST) Moon Rise:09:27 PM (PST)11/4
Sunset:04:47 PM (PST) Moon Set:11:48 AM (PST)11/4

Copyright © 2014 The Weather Underground, Inc.